Starlink 30951

operational
NORAD ID: 58439 Int'l Des: 2023-183 Owner: SPXS Country: US Constellation: starlink
LEOCIRCULAR

关于 Starlink 30951

正在加载描述...

实时位置

正在加载3D地球...

即将过境

高度历史

Altitude vs Time

uPlot chart will show altitude changes over time

两行轨道根数

1 58439U 23183C 25304.72341681 -.00001764 00000-0 -11553-3 0 9990
2 58439 43.0040 24.1514 0001316 271.4412 88.6279 15.02544808107310
Epoch: Oct 31, 2025 • Age: 23 hours

当前状态

高度 563.8 km
速度 7.58 km/s
星下点 -22.12°S, 66.3°W
发射日期 Nov 28, 2023
运行时间 1.9 years
类型 internet

技术详情

分类 Payload
质量 730.00 kg
干质量 700.00 kg
总质量 730.00 kg
长度 0.30 m
直径 4.10 m
跨度 29.00 m
形状 Box + pan
制造商 SPXS
平台类型 Starlink V2M
阶段状态 In Orbit
所有者/国家 SPXS/US

大型星座

Loading constellations...